Regional Weather Roundup
Issued by NWS

Home | Current Version | Previous Version | Text Only | Print | Product List | Glossary Off
Versions: 1 2 3 4 5 6 7 8 9 10 11 12 13 14 15 16 17 18 19 20 21 22 23 24 25 26 27 28 29 30 31 32 33 34 35 36 37 38 39 40 41 42 43 44 45 46 47 48 49 50

000
ASUS45 KTFX 201004
RWRMT
MONTANA HOURLY WEATHER ROUNDUP
NATIONAL WEATHER SERVICE GREAT FALLS MT
304 AM MST SAT DEC 20 2014

NOTE: "FAIR" INDICATES FEW OR NO CLOUDS BELOW 12000 FEET WITH NO
SIGNIFICANT WEATHER AND/OR OBSTRUCTIONS TO VISIBILITY.

* THESE STATIONS ARE NOT UNDER NWS QUALITY CONTROL. THEY DO NOT
   REPORT WEATHER SUCH AS PRECIPITATION OR FOG.

MTZ001>007-043-201100-
WEST OF THE DIVIDE
CITY           SKY/WX    TMP DP  RH WIND       PRES   REMARKS
KALISPELL      CLOUDY    36  32  85 S6        29.96R WCI  31
MISSOULA       FOG       27  25  92 CALM      30.02R VSB M1/4
BUTTE          CLEAR     28  18  66 CALM      29.96S
MULLAN PASS    MOCLDY    25  21  85 VRB5      29.90S WCI  19
* ESSEX        N/A       32  31  96 N/A        N/A
* LINCOLN      N/A       31  24  75 S6G13      N/A   WCI  25
* LOOKOUT PASS N/A       29  27  92 N/A        N/A
* POLSON       N/A       31  31 100 S1         N/A
* RONAN APT    CLEAR     34  30  85 N/A        N/A
* SEELEY LAKE  N/A       23  22  96 NE1        N/A
* THOMP F APT  PTCLDY    26  25  96 E1         N/A
$$

MTZ008-052>055-201100-
SOUTHWEST MONTANA
CITY           SKY/WX    TMP DP  RH WIND       PRES   REMARKS
BOZEMAN        PTCLDY    28  25  89 NE6       29.97S WCI  21
DILLON         CLEAR     25  18  75 SW13      29.96F WCI  13
* W YELLOWSTON PTCLDY    26  23  88 S1G10      N/A
* THREE FORKS  PTCLDY    34  25  70 N/A        N/A
* BOULDER HILL N/A       24  18  78 S2         N/A
* MONIDA PASS  N/A       24  24 100 SE10       N/A   WCI  14
* RAYNOLDS PAS N/A       25  12  58 SW4        N/A
* WHITEHALL    N/A       34  25  70 W7G17      N/A   WCI  28
* WISE RIVER   N/A       25  21  85 SW3        N/A
$$

MTZ009>010-012-014-046-048-049-054-201100-
EAST SLOPES AND CENTRAL MONTANA
CITY           SKY/WX    TMP DP  RH WIND       PRES   REMARKS
CUT BANK       MOCLDY    34  25  70 W21       29.79R WCI  22
GREAT FALLS    PTCLDY    34  21  59 SW14      29.85S WCI  24
HELENA         CLEAR     34  19  54 CALM      29.95S
* DEARBORN     N/A       38  22  53 NW1G8      N/A
* EAST GLACIER N/A       32  20  61 W21G31     N/A   WCI  20
* MONARCH      N/A       32  14  47 SW19G29    N/A   WCI  20
* PENDROY      N/A       32  19  59 W16        N/A   WCI  21
* SWEET GRASS  N/A       34  25  70 W25G33     N/A   WCI  21
$$

MTZ011-013-016-021-035-040-045-047-050-051-201100-
NORTH CENTRAL MONTANA
CITY           SKY/WX    TMP DP  RH WIND       PRES   REMARKS
HAVRE          CLOUDY    36  28  73 SW17      29.80S WCI  26
LEWISTOWN      MOCLDY    36  23  59 SW17      29.87R WCI  26
* N BAR RANCH  PTCLDY    37  16  42 W15G21    29.86R WCI  28
* CHESTER      N/A       29  24  82 NE2        N/A
* DENTON       N/A       35  23  62 SW15       N/A   WCI  25
* JUDITH GAP   N/A       30  22  72 W7G13      N/A   WCI  23
* LOMA         N/A       39  26  60 SW12G17    N/A   WCI  32
$$

MTZ017>020-022>027-061-062-201100-
NORTHEAST MONTANA
CITY           SKY/WX    TMP DP  RH WIND       PRES   REMARKS
GLASGOW        CLOUDY    28  27  96 SE3       29.82S
GLENDIVE       CLOUDY    30  25  82 S8        29.85F WCI  22
JORDAN         CLEAR     30  27  89 W9        29.83S WCI  22
SIDNEY         CLOUDY    21  19  92 CALM      29.88S VSB 3
WOLF POINT     CLOUDY    25  21  85 E3        29.85S
* BEAVER HILL  N/A       34  24  67 S6         N/A   WCI  29
* CIRCLE       N/A       34  28  79 SW2        N/A
* LINDSAY DVD  N/A       37  25  62 S3         N/A
* NAVAJO       N/A       24  22  92 S4         N/A
* SACO         N/A       31  30  96 N/A        N/A
$$

MTZ028>042-056>058-201100-
SOUTHCENTRAL AND SOUTHEAST MONTANA
CITY           SKY/WX    TMP DP  RH WIND       PRES   REMARKS
BAKER          CLOUDY    28  27  96 CALM      29.86S
BILLINGS       MOCLDY    34  21  59 SW8       29.92R WCI  27
LIVINGSTON     MOCLDY    37  25  62 W20G25    29.93R WCI  27
MILES CITY     CLOUDY    30  25  82 S3        29.87R
* LAUREL APT   PTCLDY    30  16  56 N/A        N/A
* ROUNDUP APT  MOCLDY    43  23  45 W18G24     N/A
* ALZADA       N/A       31  22  69 W2         N/A
* HYSHAM       N/A       33  19  56 W4G9       N/A
* LAME DEER    N/A       35  22  59 W6         N/A   WCI  30
* REED POINT   N/A       24  22  92 E4         N/A
* ROSCOE HILL  N/A       35  11  37 N/A        N/A
$$

REGIONAL REPORTS...DAKOTAS
CITY           SKY/WX    TMP DP  RH WIND       PRES   REMARKS
WILLISTON      MOCLDY    10   9  96 CALM      29.87S
DICKINSON      CLOUDY    27  21  78 S3        29.84F
BEACH          CLOUDY    28  28 100 SE3       29.85F
CROSBY         FOG       18  18 100 E6        29.87F VSB M1/4 WCI  10
WATFORD CITY   CLEAR     12  10  92 CALM      29.85S
BISMARCK       FOG       16  12  84 E5        29.94S VSB 3/4  WCI   8
GRAND FORKS    FOG       28  27  96 S6        30.00F WCI  21
FARGO          CLOUDY    30  28  92 S9        30.03S WCI  22
BUFFALO SD     PTCLDY    30  23  75 CALM      29.80F
RAPID CITY     CLEAR     30  18  61 NW6       29.90R WCI  24
$$

REGIONAL REPORTS...WYOMING/IDAHO/WASHINGTON
CITY           SKY/WX    TMP DP  RH WIND       PRES   REMARKS
GILLETTE       CLOUDY    36  25  64 E5        29.89F WCI  32
SHERIDAN       CLOUDY    28  21  75 CALM      29.90R
CODY           MOCLDY    41  21  45 W13G29    29.92S
YELLOWSTONE LA MOCLDY    25  19  78 VRB6      30.02S WCI  18
SALMON         CLOUDY    25  25 100 CALM      30.02R VSB 1/2
MULLAN PASS    MOCLDY    25  21  85 VRB5      29.90S WCI  19
SAND POINT     CLOUDY    34  34 100 CALM      29.99R
SPOKANE        CLOUDY    34  34 100 SE3       29.95F

$$



USA.gov is the U.S. government's official web portal to all federal, state and local government web resources and services.